DMSP 5D-2 F13 DEB, 40399

Orbit data source: Space-Track

DMSP 5D-2 F13 DEB, 40399 is space debris in SSO originally from a launch on Fri, 24 Mar 1995 UTC launched from the Air Force Western Test Range (AFWTR). Debris objects in space refer to the collection of defunct objects orbiting the Earth. Examples of debris include non-operational satellites, rocket bodies, and fragments generated from explosions, collisions, or faulty payload assembly.

Loading next visibility...
Identifier
40399, 1995-015L
Orbit
SSO
Country
Flag of USUS
Related business
Manufacturer
Unknown
Mission
Spacecraft
Bus & Motor
Unknown
Mass
Unknown
Launch date (UTC)
1995-03-24 (31 years ago)
Launch vehicle
Unknown
Launch site
Air Force Western Test Range (AFWTR)
Object type
Payload
Rocket body
Debris
Shape & HBR
Unknown shape, 0.1 m
Radar Cross Section
Small (<0.1 m²)

Expand to show TLE details & history
Last TLE update: 1 day ago

TLE from 1 day ago
0 DMSP 5D-2 F13 DEB
1 40399U 95015L   25287.49425319  .00003891  00000-0  14882-2 0  9992
2 40399  98.7237 311.9837 0008056 332.7980  27.2780 14.31230452551288
Epoch: 2025-10-14T11:51Z
TLE epoch observation values (Epoch: 2025-10-14T11:51:43.475Z)
Latitude
Longitude
110.77068°
Altitude
785.419 km
Speed
7.464 km/s
True Right ascension
20h 47m 56s
True Declination
0° 00' 00"
Sunlit
Object was in daylight at epoch
Visualization orbit readout
Latitude
Unknown
Longitude
Unknown
Altitude
Unknown
Speed
Unknown
Apparent Right ascension
Unknown
Apparent Declination
Unknown
Sunlit
N/A
Visualization observer readout
Local Sidereal Time
12:46:16
Azimuth
Unknown
Elevation
Unknown
Doppler factor
Unknown
Orbital elements
Apogee altitude
790.536 km
Perigee altitude
778.995 km
Semi-major axis
7,162.902 km
Eccentricity
0.00081
Inclination
98.7237°
RAAN
311.9837°
Arg. of periapsis
332.798°
True anomaly
27.32035°
Mean anomaly
27.278°
Eccentric anomaly
27.29917°
Mean motion
3.58022 °/min
Orbital period
100.55 mins
BSTAR
0.0014882

Documentation

Showing up to 5 results
|